Regional Weather Roundup
Issued by NWS

Home | Current Version | Previous Version | Text Only | Print | Product List | Glossary On
Versions: 1 2 3 4 5 6 7 8 9 10 11 12 13 14 15 16 17 18 19 20 21 22 23 24 25 26 27 28 29 30 31 32 33 34 35 36 37 38 39 40 41 42 43 44 45 46 47 48 49 50
000
ASUS43 KTOP 210208
RWRKS

WEATHER ROUNDUP FOR KANSAS
NATIONAL WEATHER SERVICE GOODLAND KS
800 PM CST MON FEB 20 2017

NOTE:  "FAIR" INDICATES FEW OR NO CLOUDS BELOW 12,000 FEET WITH NO
SIGNIFICANT WEATHER AND/OR OBSTRUCTIONS TO VISIBILITY.

KSZ001>006-013>018-027>032-041>047-210300-
NORTHWEST KANSAS

CITY           SKY/WX    TMP DP  RH WIND       PRES   REMARKS
GOODLAND       CLEAR     42  14  32 S5        30.02R
HAYS           CLEAR     46  33  60 N9        29.99
HILL CITY      CLEAR     43  30  60 NW3       30.00R
RUSSELL        CLEAR     50  36  58 N10       29.96R
$$

KSZ061>065-074>080-084>089-210300-
SOUTHWEST KANSAS

CITY           SKY/WX    TMP DP  RH WIND       PRES   REMARKS
DODGE CITY     CLEAR     47  25  42 N7        30.00R
ELKHART          N/A     52  14  22 N6          N/A
GARDEN CITY    CLEAR     40  17  39 N9        30.03R
GREAT BEND     CLEAR     53  37  54 N12       29.98R
LIBERAL        CLEAR     43  10  26 N9        30.04S
PRATT          CLEAR     50  34  54 N10       29.97R
$$

KSZ066>073-081>083-090>101-210300-
SOUTHEAST KANSAS

CITY           SKY/WX    TMP DP  RH WIND       PRES   REMARKS
CHANUTE        CLOUDY    58  52  80 SW6       29.93R
COFFEYVILLE    CLOUDY    60  54  80 SW5       29.92S
HUTCHINSON     PTCLDY    59  40  49 NW12      29.93R
MEDICINE LODGE   N/A     56  37  49 N12       29.94R
NEWTON         CLEAR     53  50  89 SW8       29.93R
PARSONS        CLOUDY    60  52  74 SW6       29.93S
WICHITA INTL   CLEAR     50  49  96 S3        29.92R
WICHITA JABRA  CLEAR     52  50  93 S5        29.92R
WICHITA MCCONL CLEAR     52  49  89 SW5       29.92R
WINFIELD       CLEAR     55  51  86 SE3       29.93R
$$

KSZ007>012-019>026-033>040-048>060-102>105-210300-
NORTHEAST KANSAS

CITY           SKY/WX    TMP DP  RH WIND       PRES   REMARKS
CONCORDIA      CLEAR     54  42  64 NW12      29.97R
EMPORIA        PTCLDY    51  49  92 SW8       29.91R
LAWRENCE       PTCLDY    59  53  80 S6        29.91R
MANHATTAN      CLEAR     53  50  89 SE5       29.90R
MARYSVILLE     CLEAR     52  46  82 N8        29.93R
OLATHE IND     CLOUDY    60  51  72 S9        29.91R
OLATHE EXE     MOCLDY    59  52  77 SW8       29.91R
SALINA         MOCLDY    59  41  51 NW17      29.94R
TOPEKA BILLARD CLOUDY    59  52  77 SW6       29.91R
TOPEKA FORBES  CLOUDY    58  51  78 SW8       29.91R
$$



USA.gov is the U.S. government's official web portal to all federal, state and local government web resources and services.